EW8310 Weather Reports


Display with metric or nautical units.
time (UTC)temp
F
wind
direction
speed
MPH
gust
MPH
rain 1hr
in
rain 24hr
in
rain mn
in
humidity
%
barometer
mb
20260503220631 88 141 3.0 6.0 0.00 0.00 0.00 18 1005.5
20260503220131 88 193 2.0 6.0 0.00 0.00 0.00 21 1005.7
20260503215631 87 140 2.0 9.0 0.00 0.00 0.00 20 1005.6
20260503215127 87 0 2.0 9.0 0.00 0.00 0.00 20 1005.6
20260503214858 87 113 0.0 7.0 0.00 0.00 0.00 23 1005.9
20260503214130 87 99 2.0 7.0 0.00 0.00 0.00 24 1006.1
20260503213630 86 69 3.0 5.0 0.00 0.00 0.00 23 1006.0
20260503213131 87 21 2.0 5.0 0.00 0.00 0.00 23 1006.2
20260503212630 87 182 1.0 4.0 0.00 0.00 0.00 23 1006.3
20260503212130 87 282 1.0 4.0 0.00 0.00 0.00 23 1006.5
20260503211626 87 326 2.0 4.0 0.00 0.00 0.00 23 1006.5
20260503211126 86 195 0.0 5.0 0.00 0.00 0.00 24 1006.5
20260503210631 86 142 3.0 9.0 0.00 0.00 0.00 24 1006.8
20260503210624 85 104 2.0 9.0 0.00 0.00 0.00 25 1006.6
20260503205629 85 80 4.0 9.0 0.00 0.00 0.00 25 1006.8
20260503205129 85 86 4.0 7.0 0.00 0.00 0.00 25 1006.9
20260503204629 85 169 2.0 6.0 0.00 0.00 0.00 24 1007.1
20260503204125 85 164 2.0 7.0 0.00 0.00 0.00 24 1007.2
20260503203625 85 180 4.0 11.0 0.00 0.00 0.00 24 1007.2
20260503203125 85 85 2.0 11.0 0.00 0.00 0.00 24 1007.2
20260503202625 85 103 2.0 5.0 0.00 0.00 0.00 22 1007.3
20260503202128 85 85 2.0 5.0 0.00 0.00 0.00 22 1007.3
20260503201629 85 89 1.0 7.0 0.00 0.00 0.00 22 1007.3
20260503201128 85 151 1.0 11.0 0.00 0.00 0.00 22 1007.4
20260503200628 85 166 6.0 11.0 0.00 0.00 0.00 22 1007.6
20260503200127 85 158 0.0 6.0 0.00 0.00 0.00 24 1007.6
20260503195624 85 244 1.0 3.0 0.00 0.00 0.00 24 1007.8
20260503195124 85 351 0.0 7.0 0.00 0.00 0.00 23 1007.8
20260503194624 85 255 3.0 7.0 0.00 0.00 0.00 24 1007.8
20260503194127 84 171 2.0 6.0 0.00 0.00 0.00 25 1007.8
20260503193628 84 157 2.0 6.0 0.00 0.00 0.00 24 1007.9
20260503193127 84 203 3.0 6.0 0.00 0.00 0.00 26 1008.1
20260503192627 84 219 4.0 7.0 0.00 0.00 0.00 25 1008.2
20260503192127 84 151 3.0 11.0 0.00 0.00 0.00 25 1008.2
20260503191622 84 224 4.0 11.0 0.00 0.00 0.00 24 1008.2
20260503191122 84 197 3.0 7.0 0.00 0.00 0.00 26 1008.2
20260503190623 83 192 3.0 7.0 0.00 0.00 0.00 26 1008.2
20260503190123 83 104 3.0 7.0 0.00 0.00 0.00 27 1008.4
20260503185626 83 107 3.0 7.0 0.00 0.00 0.00 27 1008.4
20260503185126 83 220 3.0 7.0 0.00 0.00 0.00 27 1008.6
20260503184626 83 142 2.0 7.0 0.00 0.00 0.00 28 1008.7
20260503184126 83 180 4.0 7.0 0.00 0.00 0.00 28 1008.8
20260503183626 83 154 5.0 7.0 0.00 0.00 0.00 27 1008.9
20260503183346 83 176 4.0 7.0 0.00 0.00 0.00 28 1008.9
20260503182626 83 145 2.0 6.0 0.00 0.00 0.00 28 1008.9
20260503182352 82 223 3.0 5.0 0.00 0.00 0.00 28 1009.1
20260503181847 82 161 3.0 5.0 0.00 0.00 0.00 29 1009.2
20260503181126 82 89 1.0 6.0 0.00 0.00 0.00 30 1009.4
20260503180626 82 90 3.0 7.0 0.00 0.00 0.00 29 1009.4
20260503180125 81 172 2.0 7.0 0.00 0.00 0.00 29 1009.4
20260503175851 81 87 2.0 5.0 0.00 0.00 0.00 30 1009.2
20260503175125 81 65 2.0 4.0 0.00 0.00 0.00 30 1009.5
20260503174849 81 82 1.0 7.0 0.00 0.00 0.00 29 1009.5
20260503174342 81 168 2.0 7.0 0.00 0.00 0.00 30 1009.6
20260503173621 81 83 4.0 7.0 0.00 0.00 0.00 30 1009.6
20260503173125 81 158 1.0 6.0 0.00 0.00 0.00 30 1009.7
20260503172624 81 152 2.0 7.0 0.00 0.00 0.00 30 1009.7
20260503172345 81 128 1.0 7.0 0.00 0.00 0.00 30 1009.6
20260503171124 81 157 2.0 6.0 0.00 0.00 0.00 30 1009.7
20260503170624 80 56 3.0 6.0 0.00 0.00 0.00 31 1009.8
20260503170123 80 106 2.0 6.0 0.00 0.00 0.00 30 1009.8
20260503160122 78 89 2.0 4.0 0.00 0.00 0.00 34 1009.8
20260503150621 72 200 0.0 0.0 0.00 0.00 0.00 45 1009.7
20260503150121 72 200 0.0 0.0 0.00 0.00 0.00 46 1009.7
20260503140120 67 258 0.0 0.0 0.00 0.00 0.00 53 1009.4
20260503131118 65 186 0.0 0.0 0.00 0.00 0.00 51 1008.9
20260503130838 65 186 0.0 0.0 0.00 0.00 0.00 51 1008.8
20260503130118 65 186 0.0 0.0 0.00 0.00 0.00 50 1008.6
20260503110115 67 212 0.0 0.0 0.00 0.00 0.00 46 1008.6
20260503100114 69 345 0.0 0.0 0.00 0.00 0.00 43 1008.6
20260503090112 74 78 0.0 2.0 0.00 0.00 0.00 33 1008.6
20260503081616 76 56 4.0 11.0 0.00 0.00 0.00 31 1008.8
20260503081112 76 59 4.0 11.0 0.00 0.00 0.00 31 1008.8
20260503080612 76 51 4.0 11.0 0.00 0.00 0.00 31 1008.9
20260503080111 76 65 6.0 11.0 0.00 0.00 0.00 31 1009.0
20260503072610 77 58 5.0 14.0 0.00 0.00 0.00 30 1008.9
20260503072110 77 73 5.0 12.0 0.00 0.00 0.00 30 1008.9
20260503071610 77 56 6.0 14.0 0.00 0.00 0.00 29 1009.0
20260503071111 77 79 5.0 15.0 0.00 0.00 0.00 29 1008.8
20260503070842 77 59 6.0 15.0 0.00 0.00 0.00 29 1009.0
20260503070110 77 59 3.0 11.0 0.00 0.00 0.00 29 1008.9
20260503060336 78 38 6.0 15.0 0.00 0.00 0.00 29 1008.3
20260503055108 78 86 7.0 16.0 0.00 0.00 0.00 29 1008.3
20260503054608 78 59 7.0 15.0 0.00 0.00 0.00 29 1008.2
20260503054108 78 71 9.0 15.0 0.00 0.00 0.00 29 1008.2
20260503053608 78 49 6.0 16.0 0.00 0.00 0.00 29 1008.3
20260503053108 78 80 7.0 16.0 0.00 0.00 0.00 29 1008.3
20260503052608 78 35 7.0 14.0 0.00 0.00 0.00 29 1008.5
20260503052108 78 63 5.0 18.0 0.00 0.00 0.00 29 1008.5
20260503052057 78 61 8.0 18.0 0.00 0.00 0.00 29 1008.6
20260503051107 78 55 5.0 12.0 0.00 0.00 0.00 29 1008.5
20260503050608 78 69 3.0 14.0 0.00 0.00 0.00 29 1008.5
20260503050107 78 24 4.0 14.0 0.00 0.00 0.00 29 1008.5
20260503045606 78 75 8.0 14.0 0.00 0.00 0.00 28 1008.4
20260503045106 78 21 6.0 16.0 0.00 0.00 0.00 28 1008.4
20260503044831 78 69 6.0 16.0 0.00 0.00 0.00 28 1008.4
20260503044107 78 48 6.0 18.0 0.00 0.00 0.00 28 1008.4
20260503043607 78 96 8.0 18.0 0.00 0.00 0.00 28 1008.3
20260503043106 78 52 4.0 16.0 0.00 0.00 0.00 28 1008.2
20260503042606 78 80 4.0 16.0 0.00 0.00 0.00 28 1008.1
20260503042106 78 61 5.0 12.0 0.00 0.00 0.00 27 1007.9
20260503041606 78 58 5.0 15.0 0.00 0.00 0.00 27 1007.8
20260503041106 78 20 4.0 15.0 0.00 0.00 0.00 27 1007.7
20260503040606 78 79 7.0 13.0 0.00 0.00 0.00 27 1007.6
20260503040106 78 61 6.0 14.0 0.00 0.00 0.00 27 1007.5
20260503035606 79 99 4.0 14.0 0.00 0.00 0.00 27 1007.4
20260503035105 79 49 5.0 15.0 0.00 0.00 0.00 27 1007.4
20260503034605 79 80 6.0 15.0 0.00 0.00 0.00 26 1007.4
20260503034105 79 86 5.0 13.0 0.00 0.00 0.00 26 1007.4
20260503034050 79 78 7.0 14.0 0.00 0.00 0.00 26 1007.4
20260503033325 79 56 8.0 15.0 0.00 0.00 0.00 26 1007.4
20260503032605 79 125 7.0 19.0 0.00 0.00 0.00 26 1007.4
20260503032104 80 47 10.0 19.0 0.00 0.00 0.00 26 1007.3
20260503031816 80 59 10.0 20.0 0.00 0.00 0.00 25 1007.3
20260503031703 80 65 6.0 16.0 0.00 0.00 0.00 25 1007.2
20260503030605 80 59 7.0 20.0 0.00 0.00 0.00 25 1007.3
20260503030104 80 71 9.0 17.0 0.00 0.00 0.00 25 1007.1
20260503025604 80 56 9.0 17.0 0.00 0.00 0.00 25 1007.2
20260503025104 80 82 7.0 13.0 0.00 0.00 0.00 25 1007.1
20260503024604 80 78 4.0 11.0 0.00 0.00 0.00 25 1007.0
20260503024104 80 85 5.0 11.0 0.00 0.00 0.00 25 1007.0
20260503023826 80 154 4.0 11.0 0.00 0.00 0.00 25 1006.9
20260503023104 80 37 4.0 7.0 0.00 0.00 0.00 25 1007.0
20260503022604 80 96 3.0 10.0 0.00 0.00 0.00 24 1007.0
20260503022103 81 100 4.0 10.0 0.00 0.00 0.00 24 1006.9
20260503021604 81 39 5.0 10.0 0.00 0.00 0.00 23 1006.9
20260503021103 81 56 2.0 4.0 0.00 0.00 0.00 23 1006.9
20260503020603 81 78 1.0 4.0 0.00 0.00 0.00 22 1006.8
20260503015602 82 69 2.0 6.0 0.00 0.00 0.00 22 1006.9
20260503015525 82 130 3.0 6.0 0.00 0.00 0.00 21 1006.9
20260503015150 82 113 2.0 6.0 0.00 0.00 0.00 21 1006.9
20260503014102 83 100 1.0 6.0 0.00 0.00 0.00 21 1006.9
20260503013603 83 154 1.0 4.0 0.00 0.00 0.00 21 1006.9
20260503013102 83 169 0.0 7.0 0.00 0.00 0.00 20 1006.8
20260503012820 83 104 3.0 7.0 0.00 0.00 0.00 20 1006.9
20260503012102 83 124 1.0 4.0 0.00 0.00 0.00 20 1006.9
20260503011602 83 78 0.0 7.0 0.00 0.00 0.00 20 1006.9
20260503011324 84 168 0.0 9.0 0.00 0.00 0.00 20 1006.9
20260503010601 84 131 3.0 9.0 0.00 0.00 0.00 20 1007.0
20260503005602 84 200 0.0 9.0 0.00 0.00 0.00 20 1007.0
20260503005102 85 110 2.0 9.0 0.00 0.00 0.00 19 1006.9
20260503004825 85 179 0.0 6.0 0.00 0.00 0.00 19 1006.8
20260503004322 85 134 2.0 7.0 0.00 0.00 0.00 18 1006.8
20260503003601 86 86 4.0 7.0 0.00 0.00 0.00 18 1006.8
20260503003328 86 147 0.0 3.0 0.00 0.00 0.00 17 1006.8
20260503002601 86 69 0.0 3.0 0.00 0.00 0.00 18 1006.8
20260503002101 87 345 0.0 7.0 0.00 0.00 0.00 17 1006.8
20260503001601 87 166 1.0 7.0 0.00 0.00 0.00 16 1006.9
20260503001100 87 180 3.0 6.0 0.00 0.00 0.00 16 1006.8
20260503000600 88 161 1.0 3.0 0.00 0.00 0.00 16 1006.8
20260503000100 88 231 0.0 3.0 0.00 0.00 0.00 16 1006.8
20260502235820 88 125 0.0 6.0 0.00 0.00 0.00 16 1006.8
20260502235100 88 186 2.0 7.0 0.00 0.00 0.00 16 1006.9
20260502234821 87 197 4.0 10.0 0.00 0.00 0.00 16 1006.8
20260502234100 87 135 3.0 10.0 0.00 0.00 0.00 15 1006.8
20260502233827 87 180 4.0 10.0 0.00 0.00 0.00 16 1006.8
20260502233100 86 278 3.0 6.0 0.00 0.00 0.00 14 1006.8
20260502232559 87 295 2.0 5.0 0.00 0.00 0.00 14 1006.8
20260502232321 86 171 2.0 5.0 0.00 0.00 0.00 15 1006.9
20260502231559 86 296 2.0 5.0 0.00 0.00 0.00 15 1007.0
20260502231542 87 224 2.0 7.0 0.00 0.00 0.00 15 1007.2
20260502230817 87 264 1.0 9.0 0.00 0.00 0.00 14 1007.1
20260502230059 87 169 2.0 10.0 0.00 0.00 0.00 14 1007.1
20260502225559 87 188 5.0 13.0 0.00 0.00 0.00 14 1007.2
20260502225058 88 166 3.0 13.0 0.00 0.00 0.00 13 1007.2
20260502224559 88 276 1.0 10.0 0.00 0.00 0.00 14 1007.1
20260502224320 89 220 3.0 10.0 0.00 0.00 0.00 14 1007.2
20260502223558 89 186 3.0 10.0 0.00 0.00 0.00 14 1007.2
20260502223058 89 217 0.0 13.0 0.00 0.00 0.00 14 1007.2
20260502222558 89 203 2.0 13.0 0.00 0.00 0.00 14 1007.2
20260502222058 90 224 5.0 7.0 0.00 0.00 0.00 14 1007.3
20260502221557 89 152 2.0 7.0 0.00 0.00 0.00 14 1007.3
20260502221057 88 207 3.0 7.0 0.00 0.00 0.00 14 1007.3